Weather History for Clovis, NM

Change the Weather History Date:

Saturday, December 28, 2013

  Actual Average Record
Temperature  
Mean Temperature 38 °F -  
Max Temperature 57 °F 50 °F 70 °F (1955)
Min Temperature 19 °F 24 °F 4 °F (1987)
Degree Days  
Heating Degree Days 27    
Moisture  
Dew Point 20 °F    
Average Humidity 54    
Maximum Humidity 80    
Minimum Humidity 23    
Precipitation  
Precipitation 0.00 in - - ()
Sea Level Pressure  
Sea Level Pressure 29.97 in    
Wind  
Wind Speed 12 mph (WSW)    
Max Wind Speed 30 mph    
Max Gust Speed 36 mph    
Visibility 10 miles    
Events      
Averages and records for this station are not official NWS values.
T = Trace of Precipitation, MM = Missing Value Source: NWS Daily Summary

Daily Weather History Graph

Daily Weather History Graph

Search for Another Location

Airport:

Trip Planner

Search our weather history database for the weather conditions in past years. The results will help you decide how hot, cold, wet, or windy it might be!

Date:

Astronomy

Dec. 28, 2013 Rise Set
Actual Time 6:57 AM MST 4:50 PM MST
Civil Twilight 6:30 AM MST 5:18 PM MST
Nautical Twilight 5:58 AM MST 5:49 PM MST
Astronomical Twilight 5:27 AM MST 6:20 PM MST
Moon 2:42 AM MST (12/28) 1:38 PM MST (12/28)
Length of Visible Light 10h 48m
Length of Day
9h 52m
Waning Crescent, 18% of the Moon is Illuminated
Dec 28
Waning Crescent
Jan 1
New
Jan 7
First Quarter
Jan 15
Full
Jan 23
Last Quarter

Hourly Weather History & Observations

Time (MST) Temp. Windchill Dew Point Humidity Pressure Visibility Wind Dir Wind Speed Gust Speed Precip Events Conditions
12:15 AM 26.6 °F 17.5 °F 15.8 °F 64% 30.22 in 10.0 mi West 9.2 mph - N/A   Clear
12:35 AM 26.6 °F 17.5 °F 17.6 °F 69% 30.21 in 10.0 mi West 9.2 mph - N/A   Clear
12:55 AM 26.6 °F 17.5 °F 17.6 °F 69% 30.20 in 10.0 mi West 9.2 mph - N/A   Clear
1:15 AM 26.6 °F 17.5 °F 17.6 °F 69% 30.20 in 10.0 mi West 9.2 mph - N/A   Clear
1:35 AM 24.8 °F 15.3 °F 15.8 °F 69% 30.19 in 10.0 mi West 9.2 mph - N/A   Clear
1:55 AM 26.6 °F 17.5 °F 17.6 °F 69% 30.19 in 10.0 mi West 9.2 mph - N/A   Clear
2:15 AM 24.8 °F 15.3 °F 17.6 °F 74% 30.17 in 10.0 mi West 9.2 mph - N/A   Clear
2:35 AM 24.8 °F 15.3 °F 15.8 °F 69% 30.16 in 10.0 mi West 9.2 mph - N/A   Clear
2:55 AM 24.8 °F 15.3 °F 15.8 °F 69% 30.16 in 10.0 mi West 9.2 mph - N/A   Clear
3:15 AM 23.0 °F 13.9 °F 15.8 °F 74% 30.15 in 10.0 mi West 8.1 mph - N/A   Clear
3:35 AM 21.2 °F 12.6 °F 15.8 °F 80% 30.14 in 10.0 mi West 6.9 mph - N/A   Clear
3:55 AM 21.2 °F 13.6 °F 15.8 °F 80% 30.13 in 10.0 mi West 5.8 mph - N/A   Clear
4:15 AM 21.2 °F 14.9 °F 15.8 °F 80% 30.12 in 10.0 mi West 4.6 mph - N/A   Clear
4:35 AM 21.2 °F 14.9 °F 15.8 °F 80% 30.12 in 10.0 mi West 4.6 mph - N/A   Clear
4:55 AM 21.2 °F 13.6 °F 15.8 °F 80% 30.11 in 10.0 mi West 5.8 mph - N/A   Clear
5:15 AM 21.2 °F 13.6 °F 14.0 °F 74% 30.11 in 10.0 mi West 5.8 mph - N/A   Clear
5:35 AM 19.4 °F 9.5 °F 14.0 °F 80% 30.10 in 10.0 mi West 8.1 mph - N/A   Clear
5:55 AM 23.0 °F 12.4 °F 17.6 °F 80% 30.10 in 10.0 mi West 10.4 mph - N/A   Clear
6:15 AM 23.0 °F 11.7 °F 15.8 °F 74% 30.09 in 10.0 mi West 11.5 mph - N/A   Clear
6:35 AM 26.6 °F 16.2 °F 21.2 °F 80% 30.09 in 10.0 mi West 11.5 mph - N/A   Clear
6:55 AM 28.4 °F 18.0 °F 21.2 °F 74% 30.09 in 10.0 mi WSW 12.7 mph - N/A   Clear
7:15 AM 28.4 °F 18.0 °F 21.2 °F 74% 30.09 in 10.0 mi WSW 12.7 mph - N/A   Clear
7:35 AM 30.2 °F 19.8 °F 23.0 °F 75% 30.08 in 10.0 mi WSW 13.8 mph - N/A   Clear
7:55 AM 32.0 °F 22.1 °F 24.8 °F 75% 30.08 in 10.0 mi WSW 13.8 mph - N/A   Clear
8:15 AM 33.8 °F 24.3 °F 24.8 °F 70% 30.08 in 10.0 mi WSW 13.8 mph - N/A   Clear
8:35 AM 35.6 °F 27.1 °F 24.8 °F 65% 30.07 in 10.0 mi SW 12.7 mph - N/A   Clear
8:55 AM 37.4 °F 28.9 °F 26.6 °F 65% 30.07 in 10.0 mi WSW 13.8 mph - N/A   Clear
9:15 AM 39.2 °F 30.8 °F 26.6 °F 61% 30.06 in 10.0 mi WSW 15.0 mph - N/A   Clear
9:35 AM 39.2 °F 30.5 °F 26.6 °F 61% 30.06 in 10.0 mi SW 16.1 mph - N/A   Clear
9:55 AM 41.0 °F 32.5 °F 26.6 °F 57% 30.05 in 10.0 mi SW 17.3 mph - N/A   Clear
10:15 AM 42.8 °F 34.8 °F 24.8 °F 49% 30.04 in 10.0 mi SW 17.3 mph - N/A   Clear
10:35 AM 44.6 °F 37.4 °F 26.6 °F 49% 30.03 in 10.0 mi SW 16.1 mph - N/A   Clear
10:55 AM 46.4 °F 39.0 °F 24.8 °F 43% 30.01 in 10.0 mi SW 19.6 mph - N/A   Clear
11:15 AM 48.2 °F - 26.6 °F 43% 29.99 in 10.0 mi SW 18.4 mph - N/A   Clear
11:35 AM 50.0 °F - 26.6 °F 40% 29.97 in 10.0 mi SW 19.6 mph 23.0 mph N/A   Clear
11:55 AM 51.8 °F - 24.8 °F 35% 29.95 in 10.0 mi SW 18.4 mph 23.0 mph N/A   Clear
12:15 PM 53.6 °F - 21.2 °F 28% 29.93 in 10.0 mi WSW 21.9 mph - N/A   Clear
12:35 PM 53.6 °F - 21.2 °F 28% 29.91 in 10.0 mi SW 20.7 mph 26.5 mph N/A   Clear
12:55 PM 55.4 °F - 23.0 °F 29% 29.89 in 10.0 mi SW 20.7 mph 25.3 mph N/A   Clear
1:15 PM 55.4 °F - 21.2 °F 26% 29.88 in 10.0 mi SW 19.6 mph - N/A   Clear
1:35 PM 55.4 °F - 21.2 °F 26% 29.87 in 10.0 mi WSW 20.7 mph 26.5 mph N/A   Clear
1:55 PM 57.2 °F - 21.2 °F 25% 29.85 in 10.0 mi SW 20.7 mph 24.2 mph N/A   Clear
2:15 PM 55.4 °F - 19.4 °F 25% 29.85 in 10.0 mi SW 21.9 mph 26.5 mph N/A   Clear
2:35 PM 55.4 °F - 19.4 °F 25% 29.85 in 10.0 mi SW 18.4 mph - N/A   Clear
2:55 PM 55.4 °F - 19.4 °F 25% 29.84 in 10.0 mi SW 18.4 mph 26.5 mph N/A   Clear
3:15 PM 55.4 °F - 19.4 °F 25% 29.84 in 10.0 mi SW 17.3 mph - N/A   Clear
3:35 PM 55.4 °F - 17.6 °F 23% 29.83 in 10.0 mi SW 18.4 mph 21.9 mph N/A   Clear
3:55 PM 55.4 °F - 17.6 °F 23% 29.83 in 10.0 mi SW 18.4 mph 24.2 mph N/A   Clear
4:15 PM 53.6 °F - 17.6 °F 24% 29.83 in 10.0 mi SW 15.0 mph - N/A   Clear
4:35 PM 50.0 °F - 17.6 °F 28% 29.83 in 10.0 mi SW 13.8 mph - N/A   Clear
4:55 PM 44.6 °F 39.2 °F 17.6 °F 34% 29.83 in 10.0 mi SW 10.4 mph - N/A   Clear
5:15 PM 42.8 °F 36.6 °F 17.6 °F 36% 29.83 in 10.0 mi SW 11.5 mph - N/A   Clear
5:35 PM 41.0 °F 33.9 °F 17.6 °F 39% 29.83 in 10.0 mi SW 12.7 mph - N/A   Clear
5:55 PM 41.0 °F 33.5 °F 17.6 °F 39% 29.83 in 10.0 mi SW 13.8 mph - N/A   Clear
6:15 PM 39.2 °F 31.6 °F 17.6 °F 42% 29.82 in 10.0 mi SW 12.7 mph - N/A   Clear
6:35 PM 39.2 °F 31.6 °F 19.4 °F 45% 29.83 in 10.0 mi SW 12.7 mph - N/A   Clear
6:55 PM 39.2 °F 31.6 °F 19.4 °F 45% 29.82 in 10.0 mi SW 12.7 mph - N/A   Clear
7:15 PM 41.0 °F 33.5 °F 21.2 °F 45% 29.82 in 10.0 mi SW 13.8 mph - N/A   Clear
7:35 PM 41.0 °F 33.5 °F 23.0 °F 49% 29.82 in 10.0 mi SW 13.8 mph - N/A   Clear
7:55 PM 39.2 °F 33.0 °F 21.2 °F 49% 29.82 in 10.0 mi WSW 9.2 mph - N/A   Clear
8:15 PM 35.6 °F 28.6 °F 21.2 °F 56% 29.82 in 10.0 mi WSW 9.2 mph - N/A   Clear
8:35 PM 35.6 °F 29.9 °F 21.2 °F 56% 29.82 in 10.0 mi WSW 6.9 mph - N/A   Clear
8:55 PM 32.0 °F 25.6 °F 19.4 °F 60% 29.82 in 10.0 mi WSW 6.9 mph - N/A   Clear
9:15 PM 30.2 °F 23.4 °F 19.4 °F 64% 29.82 in 10.0 mi SW 6.9 mph - N/A   Clear
9:35 PM 28.4 °F 20.4 °F 19.4 °F 69% 29.83 in 10.0 mi WSW 8.1 mph - N/A   Clear
9:55 PM 30.2 °F 26.7 °F 19.4 °F 64% 29.83 in 10.0 mi SW 3.5 mph - N/A   Clear
10:15 PM 30.2 °F 25.4 °F 19.4 °F 64% 29.84 in 10.0 mi WNW 4.6 mph - N/A   Clear
10:35 PM 30.2 °F 21.9 °F 17.6 °F 60% 29.84 in 10.0 mi WNW 9.2 mph - N/A   Clear
10:55 PM 33.8 °F 23.9 °F 19.4 °F 56% 29.84 in 10.0 mi NW 15.0 mph - N/A   Clear
11:15 PM 37.4 °F 26.4 °F 21.2 °F 52% 29.86 in 10.0 mi North 23.0 mph 27.6 mph N/A   Clear
11:35 PM 37.4 °F 25.6 °F 21.2 °F 52% 29.86 in 10.0 mi North 26.5 mph 32.2 mph N/A   Clear
11:55 PM 39.2 °F 27.4 °F 23.0 °F 52% 29.89 in 10.0 mi North 29.9 mph 35.7 mph N/A   Clear